This is the latest recevied weather packets stored in our database for station/object WD7OO. If no packets are shown the sender has not sent any weather packets the latest 10 day(s).
| Time | Temp. | Humidity | Pressure | Rain* | Wind** | Luminosity | Snow |
|---|---|---|---|---|---|---|---|
| 1788625401 | 28.33° C | 81% | 1015.3 hPa | 0 mm | - | 699 W/m² | - |
| 1788625095 | 27.78° C | 83% | 1015.3 hPa | 0 mm | - | 701 W/m² | - |
| 1788624795 | 28.33° C | 82% | 1015.2 hPa | 0 mm | - | 301 W/m² | - |
| 1788624493 | 28.33° C | 83% | 1015.2 hPa | 0 mm | - | 709 W/m² | - |
| 1788624222 | 27.22° C | 83% | 1015.2 hPa | 0 mm | - | 744 W/m² | - |
| 1788623882 | 26.67° C | 87% | 1015.3 hPa | 0 mm | - | 689 W/m² | - |
| 1788623581 | 26.67° C | 87% | 1015.4 hPa | 0 mm | - | 669 W/m² | - |
| 1788623275 | 25.56° C | 89% | 1015.3 hPa | 0 mm | - | 711 W/m² | - |
| 1788622971 | 26.11° C | 90% | 1015.5 hPa | 0 mm | - | 213 W/m² | - |
| 1788622667 | 25.56° C | 90% | 1015.3 hPa | 0 mm | - | 210 W/m² | - |
| 1788622362 | 25.56° C | 90% | 1015.4 hPa | 0 mm | - | 324 W/m² | - |
| 1788622057 | 25.56° C | 91% | 1015.3 hPa | 0 mm | - | 218 W/m² | - |
| 1788621751 | 25° C | 90% | 1015.3 hPa | 0 mm | - | 212 W/m² | - |
| 1788621451 | 25° C | 90% | 1015.4 hPa | 0 mm | - | 170 W/m² | - |
| 1788621147 | 25° C | 91% | 1015.2 hPa | 0 mm | - | 190 W/m² | - |
| 1788620847 | 25° C | 92% | 1015.1 hPa | 0 mm | - | 241 W/m² | - |
| 1788620546 | 25° C | 91% | 1015.2 hPa | 0 mm | - | 179 W/m² | - |
| 1788620244 | 25° C | 90% | 1015.2 hPa | 0 mm | - | 219 W/m² | - |
| 1788619939 | 25.56° C | 90% | 1015.2 hPa | 0 mm | - | 221 W/m² | - |
| 1788619638 | 25.56° C | 89% | 1015.4 hPa | 0 mm | - | 337 W/m² | - |
| 1788619332 | 25° C | 91% | 1015.5 hPa | 0 mm | - | 353 W/m² | - |
| 1788619031 | 24.44° C | 93% | 1015.4 hPa | 0 mm | - | 261 W/m² | - |
| 1788618726 | 23.89° C | 94% | 1015.1 hPa | 0 mm | - | 245 W/m² | - |
| 1788618425 | 23.89° C | 95% | 1015.2 hPa | 0 mm | - | 160 W/m² | - |
| 1788618119 | 23.89° C | 95% | 1015.2 hPa | 0 mm | - | 131 W/m² | - |
* Rain latest hour (hover to see other rain measurements)
** Current wind speed in m/s (hover to see current wind gust speed)